Wind_Speed
25 25 25 24 24 24 23 23 24 24 25 25 24 24 24 23 22 22 22 22 22 22 22 21 20 20 20 19 18 17 16 15 14 13 12 11 11 11 12 12 11 11 11 11 10 9 9 8 7 7 6 5 4 4 3 2 1 1 1 1 1 2 2 2 3 3 2 3 4 5 7 8 9 11 13 15 18 20 21 23 25 27 28 30 31
24 23 24 24 24 24 24 23 23 24 25 25 25 24 24 23 23 23 24 23 23 22 22 21 21 21 21 20 20 18 17 16 16 14 13 12 12 12 13 12 12 13 13 12 12 12 11 11 10 9 8 7 6 6 6 5 4 3 3 2 3 3 4 4 5 5 5 6 8 9 10 12 13 14 17 19 21 22 24 25 26 28 29 30 30
22 21 22 23 24 24 24 24 24 25 25 25 25 25 24 24 23 23 24 24 23 22 22 21 21 22 22 22 21 20 18 16 16 15 13 12 12 13 14 14 13 14 14 14 14 14 14 13 12 11 10 9 9 9 8 7 7 6 5 5 5 5 6 6 7 7 7 8 9 11 12 13 15 16 18 20 22 23 25 26 27 28 29 29 29
22 21 21 22 23 24 24 25 25 25 25 25 25 25 25 24 24 23 24 24 23 21 21 21 21 22 23 23 22 21 19 16 16 16 14 13 12 13 14 15 15 15 15 16 16 16 15 14 14 13 12 11 11 10 10 9 9 8 7 7 7 7 8 8 8 9 9 9 10 12 13 14 16 17 19 21 23 24 26 27 28 28 28 28 28
22 21 21 21 23 24 25 25 26 26 26 25 25 25 25 25 24 23 23 23 22 21 21 21 21 22 22 22 22 21 19 17 16 16 16 14 13 13 15 15 15 15 16 17 17 18 17 16 15 15 15 13 12 12 11 11 11 11 10 10 10 10 10 11 11 11 11 11 11 12 14 15 16 17 20 22 23 24 25 26 27 27 26 26 25
21 20 21 22 22 23 24 26 26 25 25 25 25 25 26 26 25 24 23 23 23 22 21 20 20 21 21 21 21 20 19 18 16 16 16 15 14 14 15 15 15 15 16 17 18 19 18 18 17 17 17 15 14 13 13 13 12 12 12 12 13 13 13 13 13 13 14 14 14 14 15 16 17 18 19 22 23 23 23 24 24 24 24 24 24
20 19 20 21 21 22 23 24 25 25 25 25 25 25 26 26 25 24 24 24 24 23 22 21 20 19 19 20 20 20 19 18 17 16 17 16 15 14 14 15 15 14 15 16 17 19 19 18 18 18 18 17 16 16 15 15 14 14 14 14 14 14 14 14 14 14 15 15 16 16 16 16 17 17 18 20 21 21 22 23 22 22 23 24 26
21 19 19 20 20 20 21 22 24 24 24 25 25 25 26 26 26 25 24 25 25 25 23 21 20 20 20 20 20 20 19 18 18 17 17 17 15 14 14 15 14 14 14 14 15 17 18 18 18 18 18 18 17 18 18 17 17 16 16 16 16 16 16 17 17 16 16 16 16 16 16 16 16 16 17 18 20 20 21 22 21 21 23 26 29
22 20 19 19 19 19 19 20 22 23 24 25 25 25 25 26 27 26 25 25 25 25 24 22 21 21 21 20 21 21 20 19 18 17 17 17 15 14 14 15 15 14 14 14 14 15 16 17 17 16 16 17 17 18 18 19 19 18 18 18 18 18 18 18 17 16 16 15 15 15 16 15 15 16 16 17 18 19 20 21 22 23 26 29 31
24 21 19 19 19 19 19 19 21 22 23 25 26 26 25 26 26 26 26 25 25 25 24 23 23 22 22 22 22 22 21 20 19 17 17 17 16 16 15 15 15 15 15 14 14 14 15 15 16 16 16 16 16 16 17 18 19 18 18 18 18 18 17 16 15 14 15 15 14 15 15 15 15 16 16 16 17 18 20 22 24 27 30 32 33
26 24 20 19 20 20 19 19 20 21 22 23 25 26 26 26 26 26 26 25 25 26 25 25 24 23 23 23 23 23 22 20 19 18 17 17 17 17 17 16 16 16 16 15 14 14 14 15 15 16 16 16 15 14 15 17 18 17 16 15 15 15 15 14 13 14 14 15 14 14 14 14 15 15 16 16 17 18 19 22 25 29 32 34 36
28 26 23 21 21 21 20 20 20 20 21 21 23 25 26 26 26 26 26 25 25 26 26 26 25 23 23 24 24 24 23 21 20 19 18 18 18 19 19 18 18 17 16 16 15 15 15 15 15 16 16 16 16 14 13 14 15 15 13 13 13 13 14 14 14 14 14 15 15 14 14 15 15 15 16 17 17 18 20 22 26 29 33 36 38
32 29 26 24 23 23 22 21 21 21 21 20 21 23 25 26 26 26 26 26 25 26 26 26 26 25 24 24 24 25 24 23 22 21 20 20 19 20 21 21 20 19 18 17 16 16 16 16 16 16 16 16 16 16 14 13 13 14 13 13 13 13 13 15 16 16 16 17 17 15 15 16 15 15 17 18 19 20 21 24 26 29 33 35 37
35 32 29 26 24 24 25 24 22 21 21 21 21 22 23 24 24 25 26 27 26 26 26 27 27 26 25 24 24 24 24 23 23 22 21 20 20 21 21 22 22 21 20 19 18 18 17 17 17 16 16 16 17 17 16 14 14 14 14 14 14 13 15 16 17 19 20 20 19 17 16 16 16 16 17 18 19 21 23 25 28 30 32 34 36
36 35 32 29 27 26 26 26 25 23 23 23 23 23 23 24 24 24 26 28 28 26 26 27 27 27 27 26 25 24 24 24 24 22 21 21 20 21 22 23 23 23 22 21 20 19 18 18 18 18 17 17 17 18 18 17 15 15 16 16 16 16 18 18 19 21 22 23 22 20 17 16 16 16 17 19 20 22 24 27 29 31 33 34 36
35 37 35 32 29 28 28 28 28 26 25 24 24 25 25 25 25 24 24 26 27 27 27 28 28 28 28 27 27 26 25 25 25 24 22 21 21 23 24 24 24 23 23 23 23 22 21 20 20 19 19 18 18 19 20 20 19 18 18 18 18 19 19 19 20 22 22 23 24 23 21 19 18 18 18 20 21 23 25 28 31 33 34 35 37
34 36 36 34 31 29 29 29 29 29 28 26 25 26 26 27 26 26 25 25 26 27 28 28 28 29 29 28 28 27 26 25 24 24 23 22 23 24 24 24 24 24 24 24 24 24 23 22 21 21 21 20 19 20 22 23 23 22 21 21 21 21 20 20 21 22 21 21 22 22 22 22 21 20 20 20 21 23 26 29 31 33 35 37 39
33 35 36 35 33 31 31 31 30 30 30 29 27 26 27 28 28 28 27 26 25 25 26 28 29 29 29 29 28 27 26 25 24 23 23 23 23 24 24 24 25 25 25 25 26 25 24 23 22 22 22 21 21 22 23 25 25 25 25 25 25 24 22 22 23 23 22 21 20 20 20 21 21 21 21 21 22 24 26 29 31 33 35 38 40
33 35 35 35 34 34 34 33 32 31 31 31 30 28 27 28 29 29 29 27 26 25 25 27 29 30 30 29 29 28 27 26 25 24 23 23 23 24 24 26 27 27 27 27 27 26 25 24 23 23 22 22 23 23 24 26 27 27 27 29 29 27 26 26 26 25 23 22 21 20 21 21 22 22 22 22 23 25 27 29 31 33 36 38 39
31 32 33 34 34 34 35 35 34 33 32 33 33 31 29 28 29 30 30 29 28 27 27 27 28 29 31 31 30 28 27 27 27 25 24 23 24 25 26 27 28 28 28 28 28 27 26 25 24 23 22 22 23 24 25 26 27 28 29 30 30 29 29 29 28 26 24 23 22 22 22 23 23 23 23 24 26 28 29 30 32 35 37 38 39
28 29 30 32 33 33 34 35 35 35 35 36 36 34 31 30 29 30 31 31 30 29 28 28 27 28 30 31 31 30 28 28 27 26 25 24 25 26 28 28 28 28 29 29 28 27 26 25 24 23 22 21 22 24 25 26 27 29 30 31 30 30 30 30 28 26 25 24 23 23 23 24 24 24 25 26 29 31 31 32 35 37 38 39 40
29 28 29 29 30 31 33 35 36 37 37 38 38 37 34 31 30 29 30 31 32 31 30 29 28 28 29 30 31 30 29 28 27 27 26 25 25 26 28 28 27 28 29 30 28 27 27 26 25 24 23 23 24 25 26 27 28 29 29 30 31 31 31 29 28 27 26 25 24 25 25 25 26 26 27 29 31 33 34 35 37 39 40 40 41
31 29 28 28 28 29 32 35 37 38 38 39 40 38 35 33 31 29 29 31 33 33 32 30 29 29 29 30 30 30 29 28 28 27 26 26 26 26 26 27 27 27 29 29 28 27 27 27 27 26 24 24 25 26 27 27 28 28 28 29 31 31 30 29 27 26 26 26 26 26 27 27 28 28 30 32 33 34 35 37 39 40 41 41 42
34 32 29 28 28 29 32 35 37 38 39 41 41 39 36 34 32 30 30 30 32 33 33 32 31 31 31 31 31 30 29 28 27 25 25 25 26 25 25 25 26 27 28 28 28 27 27 27 27 26 25 24 24 25 26 27 28 28 28 29 30 30 29 28 27 27 27 27 27 28 29 29 30 31 33 34 34 35 36 38 39 40 41 42 42
37 34 30 29 29 30 33 35 36 38 40 40 39 38 36 34 32 32 31 31 32 34 34 33 33 32 31 31 31 29 28 27 26 24 23 23 23 23 22 23 24 26 28 28 29 28 28 27 26 26 26 25 24 24 25 26 27 28 28 29 30 30 29 29 28 28 28 28 29 30 31 31 33 34 35 36 35 36 38 39 40 40 41 41 40
39 36 32 30 31 32 34 35 36 38 40 39 37 36 34 32 32 33 33 32 33 34 34 34 34 33 32 31 30 28 27 26 26 24 21 20 20 20 21 22 24 27 29 30 30 30 28 28 27 27 27 27 26 25 25 26 27 28 29 30 30 30 30 29 29 30 30 30 31 32 32 33 35 36 36 36 36 37 39 40 39 40 40 40 39
42 38 33 32 33 33 34 35 36 38 38 37 36 34 32 32 33 34 33 32 33 34 35 34 33 32 30 29 28 27 25 24 24 23 21 20 20 20 22 25 27 29 31 32 32 31 30 30 30 30 30 30 29 28 27 27 28 28 29 31 32 32 31 31 31 31 31 32 33 34 34 35 36 37 37 37 38 39 40 39 39 39 39 39 39
43 39 35 35 35 34 33 33 35 36 36 35 34 32 32 33 32 30 28 27 28 29 29 29 28 26 25 25 24 24 23 23 24 24 22 22 21 23 25 28 29 31 32 32 32 33 33 34 34 33 33 33 32 32 30 29 29 30 30 31 32 32 32 33 33 33 33 34 36 36 36 37 38 39 38 38 39 41 40 38 38 38 37 37 38
43 40 37 37 36 34 32 32 34 35 35 34 32 30 30 29 27 24 22 21 22 23 23 23 22 22 21 22 22 23 24 25 25 26 26 25 24 25 27 28 29 31 31 31 32 34 36 36 36 35 35 35 35 35 34 32 32 32 33 33 33 33 34 35 35 35 36 37 38 38 39 39 40 40 40 39 41 41 39 37 36 36 35 36 36
44 41 39 40 38 34 32 32 34 35 35 33 31 29 28 27 26 24 23 22 22 22 22 22 23 23 23 24 25 25 26 26 25 26 28 26 24 24 25 26 28 29 29 29 31 33 35 35 36 35 33 33 33 34 33 32 32 33 33 33 33 34 36 36 37 37 38 39 40 40 40 41 42 41 39 39 41 41 38 35 34 33 34 35 35
44 42 41 41 38 34 33 33 34 35 35 32 30 30 30 30 28 25 24 23 23 23 23 24 24 25 25 26 25 24 24 24 23 24 25 24 22 21 21 23 25 27 28 28 30 31 31 31 31 31 30 29 29 29 29 28 28 30 31 31 31 32 34 35 36 37 38 39 39 40 40 41 42 40 37 37 38 38 35 33 31 32 33 34 33
42 40 41 42 39 35 34 35 35 36 35 33 32 33 33 32 30 27 26 25 24 24 24 25 24 23 23 24 24 23 23 23 22 22 23 23 22 21 21 22 24 26 27 27 29 29 29 28 28 28 28 27 26 26 26 26 26 28 30 30 30 30 31 33 34 36 36 36 37 39 38 38 38 37 35 35 35 35 33 31 30 31 33 33 31
39 37 38 40 40 38 38 37 37 37 36 35 35 35 35 33 31 29 28 27 24 23 24 24 23 22 22 23 23 23 24 24 23 23 24 24 23 23 23 23 24 25 26 26 27 27 26 26 26 26 26 27 26 25 26 26 27 28 30 30 29 30 31 32 33 34 34 35 35 36 36 35 36 36 35 34 34 32 31 30 29 30 31 31 30
37 34 34 36 39 41 43 42 41 40 39 38 37 37 35 33 31 29 27 26 24 23 23 24 23 22 22 22 23 23 23 24 23 23 23 23 22 22 23 23 23 23 23 23 23 23 23 24 24 24 25 26 25 25 27 28 28 29 31 32 31 32 33 33 32 31 32 34 35 35 36 37 38 37 35 35 34 33 31 29 28 28 29 30 29
37 35 33 35 38 41 42 42 42 43 42 42 41 39 35 31 28 26 25 25 24 23 24 24 23 22 22 22 22 22 22 22 22 22 22 22 22 22 23 23 23 23 22 22 22 22 23 24 24 25 26 27 27 28 29 30 31 32 34 34 34 34 34 33 32 30 31 33 35 37 39 40 40 38 37 37 36 34 31 28 26 26 26 28 29
38 38 34 34 37 40 39 39 41 43 43 42 40 37 32 28 26 26 26 26 26 26 26 25 24 23 22 22 22 22 22 22 23 23 23 23 24 24 25 26 26 25 25 24 24 24 24 25 26 27 28 29 30 31 32 32 32 34 34 34 33 32 32 32 31 31 32 33 36 39 41 42 41 39 38 36 35 34 33 30 26 24 25 28 29
39 41 39 37 37 38 39 39 39 40 39 38 36 34 30 27 25 25 24 25 26 27 26 25 25 24 23 23 23 23 23 24 24 24 24 24 24 25 25 26 27 27 27 26 26 27 27 27 28 29 30 31 31 32 32 33 32 32 31 31 31 32 33 34 34 35 36 36 38 40 42 43 42 40 37 34 32 33 33 30 25 24 26 28 29
40 41 41 40 38 36 37 39 39 39 38 37 36 34 32 30 28 27 26 25 26 26 26 26 26 25 24 23 24 24 25 26 26 26 26 27 27 27 27 27 28 29 29 28 28 28 29 30 30 32 33 33 32 32 32 33 32 31 30 31 32 34 36 37 37 38 38 38 40 42 41 40 41 40 37 33 31 29 29 27 25 25 27 28 30
38 37 37 37 38 38 37 36 37 38 39 39 38 36 34 33 31 30 28 27 27 28 29 28 27 25 24 25 26 26 26 27 27 28 29 30 30 30 30 30 31 31 31 31 30 30 31 32 33 34 36 36 35 34 33 33 34 33 32 33 34 36 37 39 40 41 41 40 42 43 40 38 39 38 36 32 28 24 24 25 26 26 27 29 31
36 34 35 35 36 38 38 37 37 38 38 38 37 34 32 33 33 32 31 30 30 31 31 29 26 26 26 27 28 28 29 30 31 32 33 33 33 33 33 33 34 33 32 32 32 32 33 34 35 36 37 37 36 35 34 34 34 35 34 34 36 38 40 41 43 44 44 44 44 44 41 40 37 34 33 31 27 23 24 25 26 26 28 30 32
39 34 35 37 38 39 40 41 41 41 38 36 35 33 32 34 34 34 33 33 33 32 31 29 27 28 28 28 27 28 30 31 32 33 34 34 34 34 34 34 34 34 32 31 32 33 35 35 35 36 36 35 35 35 35 35 37 37 36 35 37 40 41 43 45 47 48 48 48 45 41 37 32 28 29 30 27 24 24 25 26 27 29 31 33
41 36 35 37 38 40 42 42 43 42 40 38 38 37 36 35 34 35 36 37 35 33 32 31 30 29 29 27 26 26 27 28 28 29 29 30 30 31 31 31 31 31 30 31 31 32 33 34 35 35 34 33 33 34 35 37 40 41 39 37 37 39 40 41 43 46 47 48 47 41 35 32 29 26 25 25 24 23 25 26 27 29 31 33 35
39 39 38 36 35 37 39 41 42 42 41 40 38 37 36 36 36 37 38 38 36 35 33 31 29 27 26 25 25 25 25 25 25 26 26 26 27 27 27 28 28 29 29 30 30 31 32 33 33 33 33 33 34 35 37 39 41 42 40 38 38 41 42 42 43 45 46 46 43 38 32 30 29 27 25 24 24 26 28 29 29 31 33 35 36
33 34 35 36 37 37 39 41 41 40 40 40 39 38 38 38 38 38 38 36 34 34 32 30 28 27 26 26 25 24 24 24 24 24 24 25 25 26 25 25 26 27 28 29 30 30 31 31 31 32 33 35 37 38 38 39 39 40 40 38 37 40 41 40 39 42 43 43 41 36 31 28 27 26 27 28 28 29 30 30 31 33 35 35 35
30 31 33 35 37 38 38 39 37 35 34 34 36 36 36 35 34 34 33 33 32 31 30 30 29 29 28 26 25 24 24 24 24 24 25 25 25 26 25 25 26 26 27 28 29 29 30 31 33 35 37 39 39 38 38 38 38 39 39 37 35 36 36 35 35 37 38 37 37 35 31 27 26 26 28 29 30 30 31 32 33 34 35 35 34
24 26 27 31 34 35 33 33 33 31 29 29 32 34 34 33 33 31 30 30 31 32 31 31 30 29 27 26 25 25 25 25 26 26 26 27 27 28 28 28 28 28 29 30 30 31 31 33 35 37 37 37 37 37 38 39 39 39 38 37 36 37 37 36 37 38 37 36 35 33 29 26 25 26 28 30 31 32 33 33 34 34 34 32 32
18 17 16 21 27 30 30 30 30 30 29 30 32 33 34 35 35 34 32 31 33 34 33 32 31 30 28 27 27 27 27 28 29 29 29 29 30 30 31 31 32 32 33 33 34 34 35 35 36 36 35 35 36 38 39 40 40 40 39 39 39 40 40 39 38 37 36 35 34 33 31 29 29 28 29 31 31 31 32 33 34 33 32 31 31
12 12 11 14 19 23 23 23 24 25 26 28 31 33 34 35 36 35 34 33 34 34 33 32 31 31 30 29 28 29 29 30 30 30 30 30 30 31 32 33 33 34 35 36 36 37 37 37 37 36 35 35 38 40 40 40 40 40 40 40 40 41 40 38 36 35 34 33 33 33 33 32 31 29 30 31 31 32 32 32 32 31 31 31 31
7 8 8 10 13 14 13 13 16 19 22 26 29 30 30 31 32 32 31 31 31 31 32 31 31 31 31 31 30 30 31 31 31 31 31 30 31 31 32 33 34 35 36 37 37 37 37 37 37 36 35 37 39 41 41 41 41 41 41 40 40 39 37 34 32 31 31 31 30 29 29 29 29 29 30 32 32 32 32 32 32 32 32 32 32
4 5 5 7 10 10 10 10 12 14 16 20 25 26 25 25 26 27 27 27 28 28 29 29 29 29 30 31 31 31 31 32 32 32 32 32 32 33 33 34 35 35 36 37 38 38 37 37 36 36 36 37 39 40 41 41 41 40 39 38 37 35 33 31 30 30 30 30 29 28 28 29 30 31 32 32 33 34 34 34 34 34 34 34 34
7 6 6 7 8 10 10 11 12 11 11 12 16 19 20 21 22 24 24 25 26 26 26 27 28 28 29 30 31 31 32 32 32 32 32 32 33 33 34 34 35 36 36 37 37 37 36 36 35 36 36 37 38 39 39 39 37 35 33 32 31 30 29 30 31 31 31 30 30 30 30 31 32 33 33 34 36 37 38 38 37 37 36 36 36
Wind_Direction
220 218 216 216 216 216 216 218 219 218 217 218 218 219 223 223 223 226 228 228 229 231 232 226 219 221 227 229 229 229 231 237 242 242 241 241 241 241 240 235 233 238 240 241 242 241 241 241 238 236 236 234 230 229 232 233 232 243 253 271 305 324 328 333 334 336 323 297 307 317 314 313 316 318 318 318 319 321 322 322 321 322 323 322 322
222 222 218 217 216 216 216 216 218 220 218 218 217 217 220 223 223 225 229 231 230 230 232 230 225 223 225 229 231 232 232 235 241 245 241 241 244 245 247 243 236 238 241 244 244 245 245 246 245 242 243 244 245 245 243 241 243 244 246 268 290 300 301 304 306 310 311 307 311 316 315 313 318 321 318 316 317 317 317 317 317 317 317 318 320
224 225 221 219 218 217 217 216 216 219 220 219 218 217 219 221 222 224 229 233 233 231 231 231 229 227 226 228 231 234 235 234 239 246 245 242 244 247 249 249 244 241 241 243 245 247 248 249 250 250 249 250 250 251 249 247 251 252 250 258 268 279 286 288 290 292 294 298 302 306 307 308 312 314 312 312 313 313 312 313 313 314 316 318 321
224 226 224 221 219 218 218 217 215 217 219 219 218 218 219 221 222 224 228 233 236 235 234 232 231 231 229 229 231 234 236 236 239 246 247 243 242 246 249 248 247 245 242 243 244 247 250 250 252 253 253 252 251 252 252 253 259 262 264 267 270 277 283 285 288 290 289 292 296 299 301 304 308 310 309 309 309 309 310 310 311 312 314 316 318
226 228 225 223 222 219 218 217 217 217 218 219 218 218 219 220 222 224 226 232 235 236 236 233 233 233 232 233 233 234 238 238 238 242 246 244 238 241 247 248 248 247 246 246 245 245 248 249 251 253 253 253 253 254 257 258 261 264 268 274 276 279 284 287 290 291 290 292 293 294 299 302 303 306 306 304 303 304 305 305 306 308 310 313 317
227 229 226 225 225 221 219 218 217 217 218 219 218 218 221 221 221 223 224 230 234 235 235 234 233 234 234 237 238 237 238 238 236 237 242 243 238 236 242 247 249 248 246 247 248 248 248 248 249 251 253 254 254 255 257 259 260 263 266 271 275 278 281 284 287 290 292 295 296 297 300 301 300 302 302 300 300 302 302 302 303 306 310 314 319
227 229 227 227 227 224 222 219 218 217 217 219 219 219 222 223 223 223 223 227 232 234 233 231 232 233 232 236 240 240 239 238 235 234 237 240 238 237 240 245 249 250 248 247 249 251 251 250 249 250 252 254 255 255 257 258 259 261 264 268 272 275 279 282 284 287 289 291 294 297 299 299 299 300 300 299 300 302 302 301 304 310 315 318 322
229 230 226 226 228 226 224 221 220 218 215 217 219 220 222 225 226 225 224 226 231 234 233 229 229 232 230 232 238 240 238 236 234 231 233 238 239 238 241 245 247 250 250 248 248 250 253 253 251 251 252 254 256 257 257 258 258 260 264 268 271 275 279 283 285 287 290 291 295 300 300 300 302 302 302 301 300 300 299 301 308 317 321 324 328
228 231 226 226 228 227 226 223 222 220 216 216 219 220 222 225 228 228 225 226 229 233 235 230 225 228 230 229 232 237 237 235 233 231 232 237 241 240 241 245 249 250 250 250 250 251 254 256 256 254 252 251 253 256 258 260 260 260 263 267 271 275 278 282 284 288 292 293 298 301 300 302 305 305 303 302 299 300 302 306 315 324 327 328 332
229 232 228 225 227 227 228 227 224 223 220 218 219 221 221 223 227 230 228 226 228 231 235 234 227 225 228 228 229 233 236 233 232 232 231 234 241 243 241 241 246 250 251 251 251 252 254 257 260 260 257 253 251 252 255 260 261 262 263 266 270 273 276 279 283 288 291 293 297 298 297 302 307 306 304 303 300 302 307 314 323 329 330 330 332
229 234 231 227 228 226 227 228 228 228 226 222 221 223 224 223 225 230 231 227 227 230 234 237 234 228 227 229 229 231 234 233 231 231 229 230 236 242 245 243 243 247 251 252 252 253 254 256 259 261 263 262 259 254 251 255 260 262 263 264 267 270 273 277 280 285 290 292 293 293 296 302 306 305 304 302 300 302 309 318 326 328 328 329 331
227 230 231 230 230 229 228 228 229 230 230 227 225 226 228 228 225 228 231 229 227 228 232 236 238 235 230 229 231 232 232 231 230 229 228 228 232 238 243 245 244 244 248 252 253 253 254 256 258 260 263 265 266 262 252 249 253 256 257 259 264 271 278 282 285 290 296 298 296 297 302 304 304 305 303 298 298 304 312 320 324 326 328 330 333
226 227 229 231 231 232 231 229 227 230 231 232 229 228 231 233 230 228 230 230 228 227 230 234 238 239 236 231 231 234 234 231 228 227 227 228 231 235 240 244 247 246 247 250 253 254 254 255 256 259 263 265 266 264 257 248 247 250 252 255 261 271 281 288 293 298 302 302 298 300 304 301 298 300 298 294 298 306 313 318 322 325 328 331 335
227 226 226 229 231 231 232 231 229 228 228 230 230 230 232 235 236 233 231 232 230 226 228 232 235 239 240 237 234 234 236 235 231 227 227 229 233 237 241 244 247 249 250 251 253 254 256 257 257 258 261 263 265 266 262 252 246 247 252 258 264 274 281 289 296 300 302 301 298 298 298 295 291 291 291 291 298 307 312 317 321 324 327 331 336
227 226 225 227 229 230 231 232 231 229 226 227 229 231 233 234 237 237 234 235 234 230 227 229 232 236 239 241 240 236 235 236 235 230 229 230 234 238 243 246 247 250 253 255 256 257 257 258 259 258 258 259 263 267 267 263 254 248 250 257 265 273 279 285 291 295 297 299 298 296 292 287 282 281 285 290 298 307 312 316 320 323 326 332 335
226 226 225 226 228 230 231 231 233 233 229 227 227 229 232 233 235 237 237 238 238 234 230 229 231 234 237 240 242 240 237 235 235 234 232 232 235 238 241 246 250 252 255 258 260 260 259 258 258 259 259 259 259 262 265 266 263 257 254 256 262 267 272 277 282 285 289 291 292 291 287 282 278 279 284 290 298 307 311 314 318 321 325 330 332
226 226 226 226 228 230 231 231 233 235 234 230 227 228 231 232 233 235 237 239 239 238 235 232 231 234 235 237 240 242 241 238 236 236 234 233 235 239 242 247 251 254 256 258 260 261 260 260 259 258 258 259 260 261 262 263 263 263 261 263 265 266 268 273 278 280 281 280 280 280 278 276 275 277 282 288 297 304 308 311 314 318 322 327 327
227 229 228 228 228 230 231 231 232 235 237 235 230 228 229 231 232 234 236 238 241 242 240 236 235 235 236 237 238 240 242 242 239 237 236 235 236 238 242 247 250 253 255 257 259 261 262 262 262 260 259 258 258 259 261 262 262 263 264 266 268 270 272 278 282 284 284 280 277 274 271 270 270 272 278 286 294 300 303 307 312 317 321 324 324
226 232 232 231 231 230 230 231 232 234 237 238 235 231 229 230 232 233 235 236 238 241 242 239 237 237 238 238 238 237 239 241 241 238 236 237 237 237 239 244 248 252 254 256 258 261 263 264 263 262 261 259 257 257 259 261 263 263 263 265 267 271 274 278 281 283 285 283 280 275 269 267 268 271 277 285 292 296 300 305 312 316 318 319 320
226 232 235 236 235 232 230 230 231 232 236 238 237 233 230 230 232 233 234 235 235 238 241 241 239 239 239 240 239 238 238 239 241 240 237 236 238 239 240 242 246 251 255 257 259 260 263 264 264 263 262 260 258 258 259 260 262 264 263 264 266 269 272 274 277 280 282 282 278 273 269 268 271 275 282 289 293 296 300 305 310 312 313 315 318
226 229 233 237 239 236 232 230 231 232 234 237 238 235 232 232 233 233 233 234 234 235 240 243 243 241 240 241 241 240 238 239 241 242 240 237 238 241 244 245 247 251 255 257 259 261 263 264 264 264 263 260 258 257 257 258 259 261 263 264 265 266 267 270 274 277 279 278 275 273 271 272 275 280 286 291 293 296 300 306 309 309 311 314 317
226 227 230 235 238 237 232 231 230 230 232 235 237 236 235 234 234 234 233 233 234 234 237 242 246 245 241 240 241 241 240 239 239 241 241 241 241 243 246 248 249 252 255 257 260 262 264 266 266 264 262 259 257 255 255 256 256 258 260 263 264 265 266 268 272 275 277 277 275 275 274 274 277 281 286 288 290 293 299 304 306 307 309 312 314
226 225 225 229 234 234 232 231 231 231 232 234 235 236 236 235 235 235 234 233 234 234 234 238 244 247 244 239 239 242 242 241 239 239 240 242 244 244 246 249 251 253 256 258 260 261 263 265 266 265 263 259 257 256 257 257 257 258 259 260 263 265 266 268 271 274 276 276 275 275 275 276 279 281 283 285 288 293 298 301 302 305 308 310 312
227 224 222 224 228 229 230 231 232 232 232 233 234 236 236 236 236 236 235 234 234 234 233 235 240 245 246 242 239 240 242 244 243 240 238 239 243 244 246 249 251 254 256 259 261 262 261 262 264 266 267 265 263 261 260 260 260 261 260 260 262 266 269 270 272 273 274 274 275 275 276 278 280 282 282 285 289 294 296 298 300 303 306 308 311
228 224 219 221 224 225 228 231 231 232 233 233 234 235 236 237 237 236 236 235 233 232 232 234 238 243 245 245 242 241 241 243 245 242 238 237 239 242 245 247 251 254 257 259 260 261 262 263 264 266 267 267 265 262 261 261 261 261 261 261 262 266 270 271 271 272 272 272 273 274 275 277 279 280 282 286 290 293 294 295 299 301 304 307 310
227 224 218 217 221 224 227 230 231 232 233 233 233 233 235 237 237 237 238 236 232 230 231 233 237 240 243 243 242 242 241 242 243 242 239 237 238 241 245 248 251 254 257 258 260 262 265 268 269 269 269 268 266 264 262 262 261 261 261 261 262 265 268 269 271 272 272 272 272 273 274 276 277 279 282 286 288 290 291 294 297 300 302 305 306
225 223 216 214 219 223 226 230 231 232 233 232 230 229 230 233 236 238 240 236 231 229 230 233 236 238 238 238 239 241 242 242 243 243 240 240 243 247 251 252 253 254 256 259 262 265 267 269 269 268 268 267 267 266 265 264 263 263 262 262 262 264 266 268 269 270 271 271 272 273 274 275 276 278 281 284 286 288 290 293 295 297 299 301 302
225 221 213 212 217 221 225 229 231 231 231 229 226 225 229 235 238 238 236 233 230 230 231 233 234 234 234 235 237 242 247 251 254 254 251 249 250 251 251 253 253 254 256 259 263 264 264 264 264 265 266 267 268 268 268 267 266 266 265 265 265 266 267 268 267 267 268 269 271 272 273 275 276 278 280 282 283 285 287 290 292 293 295 298 298
224 219 211 211 215 218 222 227 228 228 226 223 222 225 231 234 231 226 223 222 224 227 229 231 234 236 239 242 246 251 255 259 262 263 259 254 251 249 248 249 251 253 255 257 259 260 261 262 263 264 266 268 270 271 271 270 269 268 267 267 267 267 268 267 267 267 267 267 269 270 271 273 274 275 277 279 281 282 285 287 288 289 293 296 296
221 215 209 209 212 215 220 224 224 221 219 218 220 223 224 221 218 216 218 221 225 230 234 238 243 247 250 253 253 253 254 255 257 258 256 253 249 247 246 248 250 252 254 256 257 259 260 263 265 266 267 268 269 270 271 271 270 269 268 267 267 266 266 265 265 266 266 267 268 269 271 272 273 275 278 280 280 281 283 284 285 288 293 295 293
218 212 207 208 210 214 219 222 219 215 214 216 218 218 215 214 217 221 226 231 235 241 246 249 250 251 253 253 251 249 248 247 248 250 252 251 249 246 245 246 248 251 254 256 258 259 260 263 265 266 267 267 267 267 268 269 270 270 270 269 268 267 267 267 267 268 268 269 271 272 272 274 276 279 280 280 279 280 282 282 284 289 293 294 291
215 210 206 206 208 212 216 217 213 210 211 214 215 215 215 218 223 229 235 241 244 246 249 249 247 245 244 244 243 242 241 240 241 244 247 248 248 249 249 248 249 252 255 258 260 262 264 266 266 267 267 266 264 264 265 266 267 268 269 269 268 269 270 270 271 272 273 274 274 275 277 279 281 282 281 279 278 278 278 278 281 287 291 292 289
217 211 205 204 207 209 211 212 209 207 210 213 214 215 218 223 228 234 240 244 243 238 237 238 236 233 232 234 235 236 236 236 237 240 243 246 249 252 254 254 253 254 255 258 261 265 269 271 271 270 270 268 266 265 265 265 266 267 268 268 270 271 272 273 275 278 280 280 281 282 284 285 283 281 280 278 277 274 273 274 279 285 290 291 287
218 210 201 201 205 205 205 207 208 207 210 214 216 218 222 227 232 236 237 237 234 227 225 228 227 225 225 227 229 231 234 237 239 240 243 247 250 252 254 255 256 255 255 257 261 265 269 271 272 273 273 272 271 271 271 270 271 272 272 273 276 278 279 281 283 284 284 284 284 284 284 283 281 279 276 273 270 267 268 273 280 286 290 290 287
214 205 197 199 204 203 202 205 208 209 212 216 218 221 225 228 230 231 229 227 225 220 218 220 221 221 223 226 228 230 234 238 241 243 245 248 250 252 254 255 256 256 256 259 262 266 270 272 274 275 275 274 274 274 274 275 276 277 278 280 282 284 283 282 282 282 281 281 281 280 279 279 279 276 273 270 269 266 266 271 280 285 287 286 286
211 206 201 202 203 201 199 201 206 211 215 218 221 224 224 222 221 222 222 221 221 217 213 213 216 220 224 229 232 235 238 241 245 248 250 252 254 256 258 260 261 261 262 264 267 270 272 274 276 277 276 275 274 273 273 275 278 280 281 283 285 286 284 283 283 283 280 279 279 278 276 275 273 271 270 272 276 276 273 272 277 280 280 281 283
207 207 204 203 202 200 198 200 205 211 215 219 221 222 219 215 213 215 216 216 216 216 213 213 216 220 224 229 234 239 244 248 252 255 257 259 260 261 263 266 268 268 267 267 269 271 274 275 276 275 274 273 273 273 274 277 279 281 283 285 286 285 284 285 286 283 280 280 280 277 275 274 272 270 267 265 267 271 272 272 274 274 275 277 279
199 202 203 200 198 197 198 200 205 211 215 218 219 216 212 210 209 209 210 213 216 220 219 218 220 223 226 231 236 240 244 249 253 257 261 263 264 266 267 268 269 269 269 269 268 269 271 271 272 272 271 272 273 274 275 278 280 281 282 284 284 282 281 282 282 280 280 281 280 277 276 275 273 271 270 267 264 266 268 269 268 269 270 273 276
193 197 200 197 194 196 199 200 204 210 214 216 215 211 208 209 209 209 210 214 218 222 222 222 223 226 230 234 239 243 246 250 253 256 258 260 262 265 266 266 265 266 268 268 268 267 266 265 266 267 268 270 272 273 274 277 280 281 283 283 282 281 279 279 279 278 278 278 277 275 273 272 268 267 269 269 267 265 264 264 264 267 269 272 274
192 189 193 194 192 195 198 197 199 206 210 211 211 208 206 209 211 212 214 216 220 223 225 226 229 233 236 240 245 248 251 252 253 253 254 256 257 259 260 260 260 262 264 266 267 268 267 266 267 269 270 272 273 274 275 277 278 279 279 279 279 280 279 279 279 279 277 275 275 274 273 271 268 267 267 267 264 261 260 260 262 267 270 273 275
192 184 186 190 191 194 198 199 200 203 206 209 212 211 208 210 213 216 218 222 226 229 231 232 235 241 247 251 253 253 251 251 252 252 253 253 255 256 257 258 260 262 263 264 265 268 270 271 272 273 273 273 275 276 278 279 280 279 278 277 275 275 275 276 277 277 276 275 274 272 272 273 272 269 270 271 268 261 257 258 262 266 269 272 274
200 193 190 190 190 194 199 202 204 204 204 206 211 212 210 210 213 218 224 228 231 233 235 237 243 249 254 255 252 248 246 246 248 249 250 252 254 256 258 260 262 264 264 263 264 265 267 269 271 272 273 274 275 277 278 279 280 282 282 281 278 276 275 273 273 274 275 275 273 271 271 273 273 271 270 270 265 258 257 261 264 267 268 269 271
210 205 200 197 196 198 201 205 207 207 205 207 210 212 211 212 215 221 226 230 233 235 238 244 247 248 245 242 240 238 239 241 243 244 246 248 250 253 256 258 259 260 261 262 262 263 264 267 270 273 275 276 276 274 275 276 278 280 281 280 278 278 277 274 273 274 274 273 272 273 274 275 274 273 271 265 259 257 259 260 262 264 266 269 271
215 212 207 204 203 205 207 210 210 208 206 207 209 211 213 217 222 225 228 230 234 238 241 242 240 235 230 230 232 233 234 236 238 239 240 242 244 247 250 253 256 258 260 261 262 264 266 269 271 272 272 272 272 272 274 276 279 281 281 280 278 278 278 276 277 278 276 272 270 272 273 271 269 268 267 263 259 258 259 259 260 263 266 269 273
217 218 216 212 210 210 210 211 210 210 209 211 213 215 219 222 225 227 228 231 235 236 235 232 230 227 226 226 227 228 230 233 236 238 240 242 244 247 249 251 254 258 262 265 266 267 267 268 269 269 269 271 273 275 277 277 278 280 282 281 279 277 275 273 275 277 277 273 270 268 265 261 257 255 255 254 253 253 256 258 261 265 269 273 276
207 213 217 215 214 214 214 212 211 211 213 215 217 220 224 226 227 228 229 230 229 227 225 224 224 224 225 227 229 232 235 239 241 244 247 250 252 254 256 257 257 259 261 263 264 264 264 264 265 268 270 273 275 276 275 275 276 278 281 282 279 275 271 270 272 273 273 269 265 261 259 258 258 256 255 255 255 257 260 262 265 267 271 275 279
198 200 204 205 206 209 212 214 214 216 220 221 221 223 226 227 227 227 227 226 224 223 223 223 223 225 228 233 236 240 243 246 248 251 253 255 256 257 258 259 260 260 260 261 262 262 263 264 266 268 270 271 271 271 272 273 274 277 279 280 279 278 275 274 273 272 269 266 264 265 266 268 266 260 256 256 258 260 262 264 268 271 275 279 282
195 194 195 195 196 199 203 207 210 213 216 215 215 217 221 221 220 221 221 221 221 222 224 225 227 231 235 239 243 246 248 250 251 253 254 256 257 259 260 262 263 264 264 264 264 264 265 265 266 267 267 265 265 267 270 271 273 275 277 278 278 277 275 272 269 266 264 263 265 267 268 266 260 254 251 252 256 259 261 265 270 274 278 281 282
176 193 205 205 199 196 199 205 209 212 213 209 206 207 211 213 214 217 219 220 221 224 226 230 234 237 240 243 245 247 248 249 250 251 252 254 256 259 261 263 266 267 267 267 267 266 266 266 265 265 264 263 264 267 269 271 272 273 275 276 275 274 271 269 268 268 266 264 263 263 261 259 256 253 252 255 259 263 266 269 272 274 276 277 277
177 182 198 209 209 207 209 210 211 214 219 217 213 213 214 216 217 219 221 223 226 229 231 235 240 243 246 248 249 250 251 251 252 253 254 256 257 259 261 263 266 268 269 269 269 268 267 266 265 263 263 263 265 267 268 269 269 270 271 272 273 273 272 272 273 271 269 269 268 266 263 260 258 256 256 259 263 266 268 271 273 273 273 273 273
267 253 241 233 227 226 228 225 218 216 219 219 218 221 225 229 230 230 231 233 235 237 239 241 244 247 250 252 253 254 255 256 256 257 258 259 260 261 262 263 265 267 267 268 269 268 267 266 265 264 263 264 265 265 265 265 264 264 266 268 270 272 273 274 273 272 271 271 271 269 266 263 261 261 263 265 267 268 269 270 271 271 271 272 273
Height
3180 3182 3184 3186 3188 3190 3192 3194 3196 3198 3200 3202 3204 3206 3208 3210 3212 3213 3215 3216 3218 3219 3221 3222 3224 3226 3227 3228 3229 3231 3232 3233 3234 3235 3236 3236 3237 3238 3239 3240 3241 3242 3242 3243 3244 3245 3245 3246 3247 3248 3248 3248 3249 3249 3250 3250 3251 3251 3252 3252 3252 3252 3252 3253 3253 3253 3254 3254 3254 3254 3254 3254 3254 3254 3253 3252 3251 3251 3250 3249 3248 3247 3247 3246 3245
3178 3180 3182 3184 3186 3188 3190 3192 3194 3196 3198 3200 3202 3204 3206 3208 3210 3211 3213 3214 3216 3217 3219 3221 3222 3224 3225 3226 3228 3229 3230 3232 3232 3233 3234 3235 3236 3237 3237 3238 3240 3240 3241 3242 3243 3243 3244 3245 3246 3247 3247 3248 3248 3249 3249 3250 3250 3251 3251 3252 3252 3252 3252 3252 3252 3253 3253 3253 3253 3253 3253 3253 3253 3253 3252 3251 3250 3250 3249 3248 3247 3246 3245 3244 3243
3176 3178 3180 3182 3184 3186 3188 3190 3192 3194 3196 3198 3200 3202 3204 3205 3208 3209 3211 3212 3214 3216 3217 3219 3221 3222 3224 3225 3226 3227 3228 3230 3231 3231 3233 3234 3235 3235 3236 3237 3238 3239 3240 3240 3241 3242 3242 3243 3244 3245 3246 3247 3247 3248 3248 3249 3249 3250 3250 3251 3251 3251 3252 3252 3252 3252 3252 3253 3253 3252 3252 3252 3252 3252 3251 3250 3249 3248 3247 3246 3245 3244 3243 3242 3241
3174 3176 3178 3180 3182 3184 3186 3188 3190 3191 3193 3195 3198 3200 3201 3203 3205 3207 3209 3210 3212 3214 3216 3217 3219 3220 3222 3223 3224 3225 3226 3228 3229 3230 3231 3232 3233 3234 3234 3235 3236 3237 3238 3239 3239 3240 3241 3242 3243 3244 3244 3245 3246 3247 3247 3248 3248 3248 3249 3249 3250 3250 3250 3251 3251 3251 3251 3252 3252 3251 3251 3251 3251 3250 3249 3248 3247 3246 3245 3244 3243 3242 3241 3241 3240
3172 3174 3176 3178 3179 3181 3183 3185 3187 3189 3191 3193 3195 3197 3199 3201 3203 3205 3207 3208 3210 3212 3214 3215 3217 3218 3220 3221 3222 3224 3225 3226 3228 3228 3229 3230 3232 3232 3233 3233 3234 3235 3236 3237 3237 3238 3239 3240 3241 3242 3242 3243 3244 3245 3246 3247 3247 3247 3248 3248 3248 3249 3249 3249 3250 3250 3250 3250 3250 3250 3250 3250 3249 3249 3248 3246 3245 3245 3243 3242 3241 3240 3240 3239 3239
3170 3172 3174 3175 3177 3179 3181 3182 3184 3187 3189 3191 3193 3195 3197 3198 3200 3202 3204 3206 3207 3209 3211 3213 3215 3217 3218 3220 3221 3222 3224 3225 3226 3227 3228 3228 3230 3231 3231 3232 3233 3234 3234 3235 3235 3236 3237 3238 3239 3240 3240 3241 3243 3243 3244 3245 3245 3246 3246 3247 3247 3247 3247 3248 3248 3248 3248 3248 3248 3248 3248 3248 3247 3247 3246 3244 3243 3242 3241 3240 3239 3239 3238 3238 3237
3167 3169 3171 3173 3175 3177 3178 3180 3182 3184 3187 3189 3191 3193 3195 3196 3198 3200 3202 3204 3205 3206 3209 3211 3213 3215 3216 3218 3219 3220 3222 3223 3224 3225 3226 3227 3228 3229 3230 3230 3231 3232 3232 3233 3233 3234 3234 3236 3237 3238 3238 3239 3240 3241 3242 3243 3244 3244 3245 3245 3245 3245 3246 3246 3246 3246 3246 3246 3246 3246 3246 3246 3245 3245 3244 3242 3241 3240 3239 3237 3237 3237 3236 3235 3235
3165 3167 3169 3171 3173 3175 3177 3179 3181 3182 3185 3187 3188 3190 3192 3194 3196 3198 3200 3201 3203 3204 3206 3208 3210 3212 3214 3216 3217 3218 3220 3221 3222 3223 3224 3225 3226 3227 3228 3229 3230 3230 3231 3231 3232 3232 3232 3233 3234 3235 3236 3237 3238 3239 3240 3241 3242 3242 3243 3243 3243 3244 3244 3244 3244 3244 3244 3244 3244 3244 3244 3243 3243 3242 3242 3240 3239 3238 3237 3236 3235 3235 3234 3233 3232
3162 3165 3167 3169 3171 3173 3175 3177 3179 3181 3182 3184 3186 3188 3190 3192 3193 3195 3197 3199 3201 3202 3204 3206 3208 3210 3211 3213 3214 3215 3217 3219 3220 3221 3223 3224 3225 3226 3226 3227 3228 3228 3229 3230 3230 3230 3231 3231 3232 3233 3234 3235 3236 3237 3237 3238 3239 3240 3241 3241 3241 3241 3242 3242 3242 3242 3242 3242 3242 3242 3241 3241 3241 3240 3240 3239 3237 3236 3235 3234 3233 3233 3232 3230 3229
3160 3162 3165 3167 3169 3171 3173 3175 3177 3179 3180 3182 3184 3185 3187 3189 3191 3193 3195 3197 3199 3200 3202 3203 3205 3207 3209 3210 3212 3213 3214 3216 3218 3219 3221 3222 3223 3223 3224 3225 3226 3226 3227 3228 3228 3229 3229 3229 3230 3230 3231 3232 3234 3235 3235 3236 3236 3238 3239 3239 3239 3239 3239 3240 3240 3240 3240 3240 3240 3240 3239 3240 3239 3238 3237 3236 3235 3234 3233 3232 3231 3230 3229 3228 3227
3157 3160 3163 3165 3167 3169 3171 3173 3175 3177 3179 3180 3182 3183 3185 3187 3189 3190 3192 3195 3197 3198 3200 3201 3202 3204 3206 3208 3209 3210 3212 3214 3216 3217 3219 3220 3221 3221 3222 3223 3224 3225 3225 3226 3227 3227 3228 3228 3228 3228 3229 3230 3231 3233 3234 3234 3234 3235 3236 3237 3237 3237 3237 3238 3238 3238 3238 3237 3238 3238 3237 3237 3237 3236 3235 3234 3233 3232 3232 3231 3230 3228 3226 3225 3224
3155 3157 3160 3163 3165 3167 3169 3171 3173 3175 3177 3178 3180 3182 3183 3184 3186 3188 3189 3192 3195 3196 3197 3199 3200 3202 3204 3205 3206 3207 3209 3211 3213 3215 3216 3218 3218 3219 3220 3221 3222 3222 3223 3224 3225 3225 3226 3226 3227 3227 3227 3228 3229 3230 3231 3232 3233 3233 3234 3234 3235 3235 3235 3235 3235 3236 3235 3235 3235 3235 3235 3235 3234 3234 3233 3232 3231 3231 3230 3230 3228 3227 3224 3222 3220
3152 3155 3158 3160 3162 3165 3167 3169 3171 3172 3174 3176 3178 3180 3181 3182 3184 3185 3187 3189 3191 3193 3195 3196 3198 3199 3201 3203 3204 3205 3207 3208 3210 3212 3214 3215 3216 3217 3217 3218 3219 3220 3221 3222 3223 3223 3224 3225 3225 3226 3226 3227 3227 3228 3229 3231 3231 3231 3232 3232 3233 3233 3233 3233 3233 3233 3233 3233 3232 3233 3233 3232 3232 3232 3231 3230 3229 3229 3228 3227 3227 3225 3223 3220 3218
3149 3152 3155 3157 3159 3162 3164 3166 3168 3170 3172 3174 3176 3177 3178 3180 3181 3183 3185 3186 3188 3190 3192 3194 3195 3196 3198 3200 3201 3203 3205 3206 3208 3209 3211 3212 3213 3214 3215 3215 3216 3217 3218 3220 3220 3221 3222 3223 3224 3224 3225 3225 3225 3226 3227 3229 3229 3230 3230 3230 3231 3231 3231 3231 3231 3231 3231 3230 3230 3230 3231 3230 3229 3229 3229 3228 3227 3226 3226 3225 3224 3223 3221 3219 3217
3146 3149 3152 3154 3157 3159 3161 3163 3165 3168 3170 3171 3173 3175 3176 3178 3179 3181 3182 3184 3185 3188 3190 3191 3193 3194 3195 3197 3198 3200 3202 3203 3205 3207 3208 3210 3211 3212 3212 3212 3213 3214 3216 3217 3218 3219 3220 3221 3222 3223 3223 3224 3224 3224 3224 3226 3227 3227 3228 3228 3228 3229 3229 3229 3229 3229 3229 3228 3228 3227 3228 3228 3227 3227 3226 3225 3225 3224 3223 3222 3221 3220 3218 3217 3216
3143 3146 3149 3151 3154 3156 3158 3161 3163 3165 3167 3169 3170 3172 3174 3175 3177 3178 3180 3181 3183 3185 3186 3188 3190 3191 3193 3194 3195 3197 3199 3201 3202 3204 3206 3207 3208 3209 3209 3210 3210 3212 3213 3214 3215 3216 3217 3219 3219 3220 3221 3222 3223 3223 3223 3223 3224 3225 3225 3225 3226 3226 3227 3227 3228 3227 3227 3226 3226 3225 3225 3225 3225 3225 3224 3224 3223 3222 3221 3220 3218 3217 3215 3214 3213
3140 3143 3146 3148 3150 3153 3155 3158 3160 3162 3164 3166 3168 3169 3171 3172 3174 3176 3177 3179 3180 3182 3184 3186 3187 3188 3190 3191 3192 3194 3196 3198 3200 3201 3203 3205 3205 3206 3207 3207 3208 3209 3210 3211 3212 3213 3214 3216 3217 3218 3219 3220 3221 3221 3221 3220 3221 3222 3222 3222 3223 3223 3224 3225 3224 3224 3224 3224 3224 3223 3223 3222 3222 3222 3222 3221 3221 3220 3219 3217 3216 3214 3212 3211 3210
3137 3140 3143 3145 3147 3150 3152 3155 3157 3159 3160 3162 3165 3167 3168 3170 3171 3173 3174 3176 3178 3180 3181 3183 3185 3185 3187 3188 3190 3192 3193 3195 3197 3199 3200 3202 3202 3203 3204 3205 3206 3207 3208 3208 3209 3210 3211 3213 3214 3215 3216 3217 3218 3218 3218 3218 3218 3219 3220 3219 3219 3220 3221 3221 3221 3220 3220 3220 3220 3220 3220 3220 3220 3219 3219 3219 3219 3218 3217 3215 3214 3212 3210 3208 3206
3134 3136 3140 3142 3144 3147 3149 3151 3153 3155 3157 3159 3162 3164 3166 3167 3169 3170 3172 3174 3175 3177 3179 3180 3182 3183 3184 3185 3187 3189 3191 3192 3194 3196 3198 3199 3200 3201 3202 3202 3203 3204 3205 3206 3207 3207 3209 3210 3211 3212 3213 3214 3215 3216 3216 3215 3215 3216 3217 3216 3216 3217 3218 3218 3217 3217 3217 3217 3217 3217 3217 3217 3217 3217 3217 3217 3216 3215 3214 3212 3211 3209 3208 3206 3204
3131 3134 3136 3139 3141 3143 3146 3148 3150 3152 3154 3156 3158 3161 3163 3165 3166 3168 3169 3171 3173 3174 3175 3177 3179 3180 3181 3183 3184 3186 3188 3189 3191 3193 3195 3196 3197 3198 3198 3199 3200 3201 3202 3203 3204 3205 3206 3207 3208 3209 3211 3212 3212 3213 3213 3213 3213 3213 3213 3213 3213 3214 3214 3214 3214 3214 3214 3214 3214 3214 3214 3214 3214 3214 3214 3213 3212 3211 3210 3209 3208 3207 3205 3204 3202
3128 3131 3133 3135 3137 3140 3143 3145 3147 3149 3151 3153 3155 3158 3160 3162 3164 3165 3167 3168 3170 3171 3172 3174 3176 3177 3179 3180 3181 3183 3185 3187 3188 3190 3192 3193 3194 3195 3195 3196 3198 3199 3199 3200 3201 3202 3203 3204 3205 3207 3208 3209 3209 3209 3210 3210 3210 3210 3209 3209 3210 3211 3211 3210 3211 3211 3211 3210 3211 3211 3212 3211 3211 3211 3210 3210 3208 3207 3206 3206 3205 3203 3201 3200 3199
3125 3128 3130 3132 3134 3136 3139 3142 3144 3146 3147 3149 3151 3154 3157 3159 3161 3163 3164 3165 3167 3168 3170 3171 3173 3174 3176 3177 3178 3180 3182 3184 3185 3187 3188 3190 3191 3192 3192 3194 3195 3196 3196 3197 3198 3199 3200 3201 3202 3203 3204 3205 3205 3205 3206 3206 3207 3206 3207 3207 3207 3207 3207 3207 3207 3207 3207 3208 3208 3208 3208 3208 3208 3208 3208 3206 3205 3204 3203 3202 3201 3199 3197 3196 3195
3122 3124 3127 3128 3130 3133 3136 3138 3140 3142 3144 3146 3148 3150 3153 3156 3158 3159 3161 3163 3164 3165 3167 3168 3170 3171 3173 3174 3176 3177 3178 3180 3182 3184 3186 3187 3188 3189 3190 3191 3192 3193 3193 3194 3195 3196 3197 3197 3198 3199 3200 3201 3202 3202 3203 3203 3203 3204 3204 3204 3203 3203 3203 3204 3204 3204 3204 3204 3205 3205 3205 3205 3205 3205 3204 3203 3202 3201 3200 3198 3196 3195 3193 3192 3191
3118 3121 3123 3125 3127 3129 3132 3134 3136 3138 3140 3142 3144 3147 3150 3152 3154 3156 3158 3160 3161 3162 3164 3165 3167 3168 3169 3171 3173 3174 3175 3177 3178 3181 3183 3184 3185 3187 3188 3189 3189 3190 3190 3191 3192 3193 3193 3194 3195 3195 3196 3197 3198 3199 3199 3199 3200 3201 3201 3201 3201 3200 3200 3200 3201 3201 3201 3201 3201 3201 3201 3201 3201 3200 3199 3198 3198 3198 3197 3195 3193 3191 3190 3188 3187
3114 3117 3120 3122 3123 3126 3127 3130 3132 3134 3136 3138 3141 3144 3146 3149 3151 3152 3154 3156 3157 3159 3160 3162 3164 3165 3167 3168 3170 3171 3173 3174 3176 3177 3180 3182 3183 3184 3186 3186 3187 3187 3187 3188 3189 3189 3189 3191 3192 3193 3193 3194 3195 3195 3196 3196 3196 3197 3197 3198 3198 3197 3197 3197 3197 3197 3197 3198 3197 3197 3197 3197 3196 3195 3195 3194 3194 3194 3192 3191 3190 3188 3186 3184 3183
3110 3113 3116 3118 3120 3122 3123 3126 3128 3130 3132 3135 3138 3141 3143 3146 3147 3149 3151 3152 3153 3155 3157 3158 3161 3163 3164 3166 3167 3169 3170 3172 3173 3175 3177 3179 3181 3183 3184 3184 3185 3184 3184 3185 3185 3186 3187 3188 3189 3189 3190 3190 3191 3191 3192 3192 3193 3193 3194 3194 3194 3194 3194 3194 3194 3193 3193 3193 3193 3193 3193 3193 3192 3191 3190 3190 3190 3189 3188 3187 3186 3184 3183 3181 3180
3105 3108 3111 3113 3115 3117 3119 3122 3124 3127 3129 3132 3135 3137 3140 3142 3143 3144 3146 3148 3149 3151 3153 3155 3157 3160 3162 3163 3165 3167 3168 3170 3171 3173 3175 3177 3179 3180 3181 3181 3182 3181 3181 3182 3182 3184 3185 3185 3185 3185 3186 3186 3186 3187 3188 3189 3189 3189 3189 3190 3190 3190 3190 3190 3190 3190 3189 3189 3188 3188 3188 3188 3187 3186 3186 3186 3185 3184 3183 3183 3182 3180 3179 3178 3176
3100 3103 3106 3108 3110 3113 3115 3118 3120 3123 3126 3129 3131 3134 3136 3138 3139 3141 3142 3144 3146 3148 3150 3153 3155 3157 3159 3162 3163 3165 3166 3167 3168 3170 3172 3174 3176 3177 3177 3177 3178 3178 3179 3179 3180 3180 3181 3181 3181 3181 3182 3182 3183 3183 3184 3185 3185 3185 3185 3185 3186 3186 3186 3186 3185 3185 3185 3185 3184 3183 3183 3183 3182 3182 3181 3181 3180 3179 3179 3178 3177 3176 3175 3174 3172
3095 3098 3101 3103 3105 3108 3111 3113 3116 3119 3122 3125 3128 3131 3133 3135 3137 3139 3140 3142 3145 3147 3149 3151 3153 3156 3158 3160 3161 3163 3164 3165 3166 3167 3168 3170 3171 3172 3173 3173 3174 3174 3175 3176 3176 3176 3176 3176 3177 3178 3179 3179 3179 3179 3180 3181 3181 3181 3181 3181 3181 3182 3181 3181 3180 3180 3180 3180 3179 3179 3178 3178 3177 3177 3176 3176 3175 3174 3175 3174 3172 3172 3171 3170 3168
3089 3092 3095 3097 3100 3103 3106 3108 3112 3115 3118 3122 3125 3128 3130 3132 3134 3136 3139 3141 3143 3145 3147 3149 3151 3153 3155 3156 3158 3159 3160 3161 3163 3163 3163 3165 3166 3168 3169 3170 3170 3170 3171 3172 3172 3172 3173 3173 3174 3175 3176 3176 3176 3176 3176 3177 3177 3176 3176 3177 3177 3177 3176 3176 3176 3176 3175 3175 3174 3174 3173 3172 3172 3172 3172 3171 3169 3169 3170 3170 3168 3168 3167 3166 3165
3084 3087 3089 3091 3094 3098 3101 3104 3107 3111 3115 3118 3121 3124 3127 3129 3132 3134 3136 3139 3141 3143 3145 3147 3149 3150 3152 3152 3154 3155 3156 3158 3159 3159 3160 3161 3163 3165 3166 3167 3167 3167 3168 3168 3168 3169 3170 3170 3170 3171 3172 3172 3172 3172 3173 3173 3173 3172 3172 3172 3173 3172 3172 3171 3171 3171 3171 3170 3170 3169 3168 3167 3167 3167 3168 3166 3165 3165 3166 3166 3165 3165 3164 3162 3161
3078 3082 3085 3088 3090 3093 3096 3100 3103 3107 3111 3114 3118 3121 3123 3126 3129 3131 3133 3135 3138 3140 3141 3143 3145 3146 3148 3149 3150 3151 3153 3154 3155 3157 3157 3158 3160 3161 3162 3163 3164 3164 3164 3165 3165 3165 3166 3167 3167 3167 3168 3168 3169 3169 3169 3169 3169 3169 3168 3168 3169 3168 3168 3167 3166 3165 3165 3166 3165 3164 3164 3164 3163 3163 3163 3163 3163 3163 3163 3163 3163 3162 3161 3159 3158
3076 3077 3080 3084 3087 3089 3092 3096 3100 3103 3107 3110 3113 3117 3120 3123 3126 3128 3130 3132 3134 3137 3138 3139 3141 3143 3144 3145 3147 3148 3149 3151 3152 3154 3155 3156 3157 3158 3159 3159 3160 3161 3161 3161 3161 3162 3162 3163 3163 3164 3164 3164 3165 3165 3165 3165 3166 3165 3164 3164 3165 3165 3164 3163 3163 3162 3161 3161 3162 3161 3161 3161 3160 3159 3160 3160 3161 3160 3160 3160 3160 3160 3158 3156 3155
3076 3077 3077 3079 3082 3085 3088 3092 3096 3100 3103 3106 3109 3113 3116 3120 3123 3125 3127 3129 3131 3133 3135 3136 3137 3139 3141 3142 3144 3145 3146 3147 3149 3150 3151 3152 3153 3154 3155 3156 3156 3157 3158 3158 3159 3159 3159 3160 3160 3160 3160 3160 3161 3161 3161 3161 3161 3161 3161 3160 3161 3161 3160 3160 3160 3160 3159 3158 3159 3159 3158 3157 3156 3156 3156 3156 3156 3156 3156 3157 3156 3156 3155 3154 3153
3074 3077 3077 3077 3079 3082 3085 3089 3092 3096 3099 3102 3105 3109 3113 3116 3119 3121 3123 3125 3127 3129 3131 3133 3135 3136 3138 3139 3141 3142 3143 3144 3145 3146 3148 3149 3150 3151 3152 3152 3153 3154 3155 3156 3156 3156 3157 3157 3157 3157 3157 3157 3157 3157 3157 3157 3157 3157 3157 3157 3157 3157 3156 3156 3157 3157 3156 3156 3155 3154 3152 3151 3152 3153 3152 3152 3152 3153 3154 3154 3153 3153 3153 3151 3150
3070 3074 3077 3076 3075 3077 3081 3084 3088 3092 3096 3099 3103 3107 3110 3113 3115 3117 3119 3122 3124 3125 3128 3130 3132 3133 3135 3136 3137 3139 3140 3141 3142 3143 3144 3146 3147 3147 3148 3149 3149 3150 3151 3152 3153 3153 3154 3153 3154 3154 3154 3153 3153 3153 3153 3153 3154 3153 3152 3152 3153 3153 3153 3152 3153 3153 3152 3152 3152 3150 3147 3147 3148 3149 3149 3149 3149 3149 3149 3149 3149 3150 3150 3149 3148
3065 3068 3071 3071 3070 3071 3076 3080 3085 3089 3093 3096 3100 3103 3106 3109 3111 3113 3116 3118 3120 3122 3125 3127 3129 3130 3132 3134 3135 3136 3137 3138 3139 3140 3141 3142 3143 3144 3145 3145 3146 3147 3147 3148 3149 3149 3150 3150 3150 3150 3149 3149 3149 3149 3148 3149 3149 3149 3149 3150 3151 3150 3149 3149 3149 3147 3146 3148 3149 3147 3144 3144 3144 3144 3144 3145 3145 3144 3144 3144 3145 3146 3146 3145 3145
3060 3062 3064 3065 3065 3067 3071 3076 3081 3085 3090 3093 3096 3099 3101 3104 3107 3109 3112 3114 3116 3119 3121 3123 3125 3127 3129 3131 3132 3133 3134 3135 3136 3137 3138 3138 3139 3140 3141 3142 3142 3142 3143 3144 3144 3145 3145 3145 3145 3144 3144 3144 3144 3145 3145 3145 3145 3145 3146 3147 3147 3145 3144 3144 3143 3141 3141 3142 3142 3139 3139 3140 3140 3138 3139 3141 3142 3141 3141 3141 3141 3141 3141 3141 3141
3060 3061 3061 3062 3062 3065 3069 3073 3078 3082 3085 3088 3089 3091 3095 3099 3103 3106 3109 3111 3112 3114 3116 3119 3122 3125 3127 3127 3128 3129 3131 3132 3133 3134 3134 3135 3136 3136 3137 3137 3137 3138 3138 3139 3139 3140 3140 3139 3139 3139 3139 3139 3140 3141 3141 3141 3140 3141 3142 3142 3141 3140 3139 3138 3138 3137 3135 3135 3134 3131 3131 3132 3133 3133 3134 3136 3136 3137 3137 3137 3137 3137 3137 3137 3137
3059 3058 3058 3058 3058 3061 3065 3069 3073 3076 3078 3081 3083 3085 3089 3093 3098 3102 3105 3106 3107 3110 3113 3117 3120 3122 3123 3124 3125 3126 3127 3128 3129 3130 3130 3131 3131 3132 3132 3132 3132 3133 3133 3134 3134 3134 3134 3134 3134 3134 3135 3135 3136 3136 3137 3137 3136 3136 3137 3138 3138 3136 3134 3133 3132 3130 3129 3129 3129 3126 3125 3126 3128 3130 3131 3131 3131 3132 3134 3134 3133 3133 3133 3133 3132
3051 3050 3050 3051 3052 3055 3059 3063 3066 3069 3074 3078 3083 3086 3088 3091 3095 3099 3102 3103 3105 3107 3110 3114 3116 3117 3118 3120 3121 3122 3123 3123 3124 3125 3125 3126 3126 3126 3127 3127 3128 3129 3130 3130 3130 3130 3129 3129 3130 3131 3131 3131 3132 3132 3132 3132 3131 3132 3133 3135 3135 3133 3131 3130 3128 3125 3124 3124 3124 3122 3122 3123 3124 3125 3126 3127 3128 3129 3130 3130 3129 3129 3129 3129 3128
3045 3046 3046 3046 3046 3049 3054 3058 3063 3068 3073 3077 3081 3084 3087 3089 3093 3096 3098 3101 3103 3104 3107 3109 3112 3113 3114 3115 3117 3117 3118 3119 3120 3120 3121 3121 3122 3122 3123 3123 3124 3125 3126 3126 3126 3126 3125 3125 3125 3126 3126 3127 3128 3127 3127 3126 3127 3127 3127 3129 3129 3128 3127 3126 3124 3121 3120 3119 3118 3117 3119 3120 3119 3120 3121 3122 3123 3125 3126 3125 3125 3125 3125 3124 3123
3045 3046 3047 3047 3047 3050 3054 3058 3062 3066 3071 3075 3079 3081 3084 3087 3089 3092 3094 3097 3099 3101 3103 3106 3108 3109 3110 3111 3112 3113 3114 3115 3116 3116 3117 3117 3118 3118 3119 3119 3120 3121 3121 3121 3121 3122 3122 3121 3121 3121 3122 3123 3123 3123 3122 3122 3122 3121 3121 3122 3122 3121 3120 3119 3118 3116 3115 3115 3115 3115 3115 3116 3116 3117 3119 3119 3120 3121 3121 3121 3120 3120 3119 3119 3119
3043 3045 3047 3049 3051 3054 3056 3058 3062 3065 3069 3072 3075 3078 3081 3084 3086 3088 3090 3093 3095 3098 3100 3102 3104 3105 3105 3106 3107 3109 3110 3110 3111 3112 3112 3113 3113 3114 3115 3115 3116 3116 3116 3116 3116 3117 3117 3117 3117 3117 3118 3119 3119 3118 3118 3117 3117 3115 3115 3115 3116 3115 3114 3114 3113 3112 3111 3112 3112 3113 3113 3113 3114 3114 3115 3116 3117 3117 3116 3116 3116 3115 3115 3115 3115
3042 3044 3046 3048 3051 3052 3054 3057 3061 3065 3068 3071 3074 3076 3079 3081 3084 3085 3087 3090 3093 3095 3097 3098 3100 3101 3102 3103 3104 3105 3106 3107 3108 3108 3108 3109 3110 3111 3111 3112 3112 3113 3113 3113 3113 3113 3114 3114 3114 3114 3114 3114 3114 3113 3113 3112 3111 3111 3110 3110 3110 3110 3110 3110 3110 3109 3109 3109 3110 3109 3109 3109 3110 3110 3110 3111 3112 3112 3111 3111 3112 3111 3111 3111 3111
3042 3044 3045 3047 3049 3051 3053 3057 3061 3064 3067 3070 3072 3075 3077 3080 3082 3083 3085 3087 3089 3091 3093 3094 3096 3098 3099 3100 3101 3102 3103 3104 3104 3105 3105 3106 3107 3107 3108 3108 3109 3109 3109 3109 3109 3109 3110 3110 3110 3109 3109 3109 3109 3108 3107 3107 3106 3105 3105 3105 3106 3106 3106 3105 3105 3106 3106 3105 3105 3104 3105 3105 3106 3106 3106 3106 3106 3107 3107 3107 3107 3108 3108 3107 3107
3043 3044 3045 3047 3049 3051 3053 3056 3060 3062 3065 3067 3069 3072 3074 3076 3078 3080 3082 3083 3085 3087 3089 3090 3092 3094 3095 3096 3097 3098 3099 3100 3101 3101 3102 3102 3102 3103 3103 3103 3104 3104 3104 3104 3104 3104 3104 3104 3104 3103 3103 3103 3103 3103 3102 3102 3101 3101 3101 3101 3101 3101 3101 3101 3101 3102 3101 3101 3100 3101 3102 3102 3102 3102 3101 3101 3101 3102 3103 3103 3103 3104 3104 3104 3102
3043 3044 3046 3047 3048 3050 3052 3056 3059 3061 3062 3064 3066 3069 3070 3072 3074 3076 3077 3079 3081 3083 3085 3086 3088 3090 3091 3092 3093 3094 3095 3096 3096 3097 3097 3097 3098 3098 3098 3098 3099 3099 3099 3099 3099 3099 3099 3098 3098 3098 3098 3098 3098 3098 3098 3098 3098 3097 3097 3097 3096 3096 3097 3097 3097 3097 3097 3096 3095 3095 3096 3096 3096 3096 3096 3096 3097 3097 3098 3099 3099 3100 3099 3098 3097
3044 3046 3047 3049 3050 3051 3054 3056 3059 3061 3061 3062 3063 3064 3066 3067 3070 3072 3074 3075 3077 3079 3081 3083 3084 3086 3087 3088 3089 3089 3090 3091 3091 3091 3092 3092 3092 3093 3093 3093 3094 3094 3094 3094 3094 3094 3094 3094 3094 3094 3094 3094 3094 3094 3094 3094 3094 3094 3094 3093 3093 3093 3093 3093 3093 3093 3092 3091 3090 3090 3091 3091 3092 3092 3093 3093 3093 3093 3094 3094 3094 3094 3093 3092 3091
3045 3046 3048 3050 3052 3053 3055 3056 3058 3060 3061 3061 3062 3063 3064 3065 3067 3068 3070 3072 3073 3075 3077 3079 3080 3082 3083 3084 3085 3086 3086 3086 3086 3086 3087 3087 3087 3088 3088 3088 3088 3089 3089 3089 3089 3089 3089 3089 3089 3089 3089 3089 3089 3089 3089 3089 3089 3089 3089 3089 3089 3089 3089 3090 3090 3090 3089 3089 3089 3088 3088 3088 3089 3089 3089 3089 3089 3089 3089 3089 3088 3088 3087 3086 3086
3043 3045 3047 3049 3051 3053 3054 3055 3056 3057 3058 3059 3060 3061 3062 3064 3065 3066 3067 3069 3070 3071 3073 3074 3076 3077 3079 3080 3081 3082 3082 3082 3082 3082 3082 3082 3083 3083 3083 3083 3083 3083 3083 3083 3083 3084 3084 3084 3084 3085 3085 3085 3085 3085 3085 3084 3084 3084 3084 3084 3085 3085 3086 3086 3086 3086 3087 3087 3086 3086 3086 3086 3086 3086 3086 3086 3086 3085 3085 3084 3083 3083 3082 3081 3081